Terminal Aerodrome Forecast
Issued by NWS Albany, NY

Home | Current Version | Previous Version | Text Only | Print | Product List | Glossary On
Versions: 1 2 3 4 5 6 7 8 9 10 11 12 13 14 15 16 17 18 19 20 21 22 23
716
FTUS41 KALY 290535
TAFPOU
TAF
KPOU 290535Z 2906/3006 36004KT P6SM BKN008 OVC015
      TEMPO 2910/2913 3SM -DZ BR SCT008 OVC015
     FM291400 35008KT P6SM BKN025
     FM291600 34010G18KT P6SM BKN035
     FM291800 33013G23KT P6SM SCT035
     FM300000 34006KT P6SM SCT035=

USA.gov is the U.S. government's official web portal to all federal, state and local government web resources and services.